LOT2WD EYVI-EPWA

Flight info

Callsign LOT2WD
Flight time N/A
Altitude 34000
Route UPASI DCT TUNGA DCT SUWGI M857 GERVI P851 NEPOX
Aircraft E190/M-SDE3GILORVW/S

Departure

Time 2026-04-30 15:01
Airport Vilnius International Airport (EYVI)

Arrival

Time N/A
Airport Warsaw Chopin Airport (EPWA)
Time Latitude Longitude Altitude Speed Heading
2026-04-30 14:26 54.64388 25.28187 626 ft 0 kts 223°
2026-04-30 14:51 54.64393 25.28196 626 ft 2 kts 227°
2026-04-30 14:51 54.64413 25.28234 627 ft 2 kts 226°
2026-04-30 14:52 54.64422 25.28249 628 ft 2 kts 225°
2026-04-30 14:52 54.64442 25.28274 628 ft 2 kts 192°
2026-04-30 14:52 54.64450 25.28276 628 ft 1 kts 177°
2026-04-30 14:53 54.64455 25.28275 628 ft 0 kts 177°
2026-04-30 14:55 54.64428 25.28293 628 ft 7 kts 136°
2026-04-30 14:56 54.64405 25.28489 632 ft 11 kts 86°
2026-04-30 14:56 54.64354 25.28652 635 ft 10 kts 172°
2026-04-30 14:57 54.64271 25.28670 634 ft 14 kts 174°
2026-04-30 14:57 54.63992 25.28670 626 ft 24 kts 201°
2026-04-30 14:58 54.63646 25.28433 608 ft 28 kts 202°
2026-04-30 14:58 54.63459 25.28302 601 ft 30 kts 201°
2026-04-30 14:58 54.63112 25.28061 596 ft 17 kts 203°
2026-04-30 14:59 54.62967 25.28165 588 ft 16 kts 110°
2026-04-30 15:00 54.63011 25.28298 589 ft 30 kts 21°
2026-04-30 15:00 54.64516 25.29347 973 ft 169 kts 18°
2026-04-30 15:01 54.67022 25.30939 2523 ft 225 kts 20°
2026-04-30 15:01 54.68446 25.31991 3025 ft 213 kts 18°
2026-04-30 15:01 54.70916 25.33761 3877 ft 173 kts 17°
2026-04-30 15:02 54.72093 25.34581 4446 ft 201 kts 18°
2026-04-30 15:02 54.73502 25.35560 5003 ft 238 kts 18°
2026-04-30 15:03 54.78271 25.37496 6514 ft 242 kts 335°
2026-04-30 15:03 54.79789 25.32331 7821 ft 273 kts 266°
2026-04-30 15:04 54.77858 25.26383 9051 ft 295 kts 243°
2026-04-30 15:04 54.74429 25.17262 10801 ft 311 kts 240°